Location: Laterina
(43.5167°N, 11.7167°E)
Time: 16:05:06
(UTC+00:00)

ATLAS 3B R/B - Pass Details

Date: 24 September 2020
Orbit: 1016 x 1179 km, 63.8° (Epoch: 04 October)

Event Time Altitude Azimuth Distance (km) Brightness Sun altitude
Rises 18:30:21 0° 326° (NW) 3,822 6.4 -15.9°
Reaches altitude 10° 18:33:12 10° 335° (NNW) 2,887 5.5 -16.4°
Maximum altitude 18:39:27 36° 41° (NE) 1,647 3.5 -17.5°
Enters shadow 18:42:34 25° 86° (E) 2,050 3.6 -18.1°
